Flag for U.S.A. Weather past 2 weeks in Santa Cruz, California, U.S.A.

Now
51 °F

Clear.


Feels Like: 49 °F
Forecast: 44 / 56 °F
Wind: 6 mph from Northwest

Location: Watsonville Municipal Airport

Current Time: Dec 25, 2014 at 7:59:10 PM

Latest Report: Dec 25, 2014 at 6:53 PM


Visibility: 10 mi

Pressure: 30.06 "Hg

Humidity: 44%

Dew point: 30 °F

Location of Santa CruzLocation

Historic Weather in Santa Cruz — Graph

°F

Santa Cruz temperature yesterday

Maximum temperature yesterday: 61 °F (at 1:53 PM)
Minimum temperature yesterday: 48 °F (at 9:53 PM)
Average temperature yesterday: 53 °F

Past Weeks' High & Low Weather Summary

 TemperatureHumidityPressure
High71 °F (Dec 23, 3:53 PM)100% (Dec 11, 2:53 PM)30.33 "Hg (Dec 11, 2:53 PM)
Low41 °F (Dec 25, 6:53 AM)27% (Dec 25, 12:53 PM)29.62 "Hg (Dec 11, 1:53 PM)
Average55 °F85%30.06 "Hg
* Reported Dec 10 5:53 PM — Dec 25 5:53 PM, Santa Cruz, Weather by CustomWeather, © 2014

Note: Actual official high and low records may vary slightly from our data, if they occured in-between our weather recording intervals... More about our weather records

Advertising

Santa Cruz weather history for previous 24 hours

 ConditionsComfort  
Time TempWeatherWind HumidityBarometerVisibility
5:53 PM
Dec 25
52 °FClear.6 mph43%30.06 "Hg10 mi
4:53 PM56 °FSunny.7 mph33%30.03 "Hg10 mi
3:53 PM59 °FSunny.10 mph32%30.03 "Hg10 mi
2:53 PM60 °FSunny.10 mph32%30.03 "Hg10 mi
1:53 PM61 °FSunny.8 mph31%30.02 "Hg10 mi
12:53 PM61 °FSunny.12 mph27%30.04 "Hg10 mi
11:53 AM60 °FSunny.9 mph32%30.06 "Hg10 mi
10:53 AM57 °FSunny.9 mph37%30.10 "Hg10 mi
9:53 AM55 °FSunny.No wind53%30.12 "Hg10 mi
8:53 AM49 °FSunny.No wind66%30.11 "Hg10 mi
7:53 AM44 °FSunny.5 mph73%30.10 "Hg10 mi
6:53 AM41 °FClear.6 mph82%30.10 "Hg10 mi
5:53 AM43 °FClear.5 mph76%30.08 "Hg10 mi
4:53 AM43 °FClear.3 mph79%30.05 "Hg10 mi
3:53 AM42 °FClear.No wind82%30.06 "Hg10 mi
2:53 AM44 °FClear.No wind79%30.06 "Hg10 mi
1:53 AM50 °FClear.3 mph61%30.06 "Hg10 mi
12:53 AM50 °FClear.9 mph66%30.06 "Hg10 mi
11:53 PM
Dec 24
50 °FClear.6 mph68%30.04 "Hg10 mi
10:53 PM48 °FClear.5 mph77%30.04 "Hg10 mi
9:53 PM48 °FClear.No wind80%30.03 "Hg10 mi
8:53 PM49 °FClear.No wind80%30.01 "Hg10 mi
7:53 PM53 °FClear.3 mph69%30.00 "Hg10 mi
Weather by CustomWeather, © 2014

See weather overviewHow to use our weather pages